Year,Month,Day,Hour,Minute,Value (Times are PST for temperature in C)
2021,08,13,00,00,28.50
2021,08,13,00,01,28.50
2021,08,13,00,02,28.50
2021,08,13,00,03,28.50
2021,08,13,00,04,28.50
2021,08,13,00,05,28.50
2021,08,13,00,06,28.50
2021,08,13,00,07,28.60
2021,08,13,00,08,28.60
2021,08,13,00,09,28.70
2021,08,13,00,10,28.80
2021,08,13,00,11,28.90
2021,08,13,00,12,29.00
2021,08,13,00,13,29.10
2021,08,13,00,14,29.10
2021,08,13,00,15,29.10
2021,08,13,00,16,29.20
2021,08,13,00,17,29.10
2021,08,13,00,18,29.10
2021,08,13,00,19,29.10
2021,08,13,00,20,29.00
2021,08,13,00,21,28.90
2021,08,13,00,22,28.80
2021,08,13,00,23,28.70
2021,08,13,00,24,28.60
2021,08,13,00,25,28.50
2021,08,13,00,26,28.40
2021,08,13,00,27,28.30
2021,08,13,00,28,28.20
2021,08,13,00,29,28.10
2021,08,13,00,30,28.00
2021,08,13,00,31,27.90
2021,08,13,00,32,27.90
2021,08,13,00,33,27.90
2021,08,13,00,34,27.80
2021,08,13,00,35,27.80
2021,08,13,00,36,27.80
2021,08,13,00,37,27.70
2021,08,13,00,38,27.70
2021,08,13,00,39,27.70
2021,08,13,00,40,27.70
2021,08,13,00,41,27.70
2021,08,13,00,42,27.70
2021,08,13,00,43,27.70
2021,08,13,00,44,27.70
2021,08,13,00,45,27.70
2021,08,13,00,46,27.70
2021,08,13,00,47,27.70
2021,08,13,00,48,27.80
2021,08,13,00,49,27.80
2021,08,13,00,50,27.90
2021,08,13,00,51,27.90
2021,08,13,00,52,27.90
2021,08,13,00,53,27.90
2021,08,13,00,54,27.90
2021,08,13,00,55,28.00
2021,08,13,00,56,28.00
2021,08,13,00,57,28.00
2021,08,13,00,58,28.00
2021,08,13,00,59,28.10
2021,08,13,01,00,28.10
2021,08,13,01,01,28.10
2021,08,13,01,02,28.10
2021,08,13,01,03,28.10
2021,08,13,01,04,28.10
2021,08,13,01,05,28.10
2021,08,13,01,06,28.00
2021,08,13,01,07,28.00
2021,08,13,01,08,28.00
2021,08,13,01,09,28.00
2021,08,13,01,10,28.00
2021,08,13,01,11,28.00
2021,08,13,01,12,28.00
2021,08,13,01,13,27.90
2021,08,13,01,14,27.90
2021,08,13,01,15,27.90
2021,08,13,01,16,27.90
2021,08,13,01,17,27.80
2021,08,13,01,18,27.80
2021,08,13,01,19,27.70
2021,08,13,01,20,27.70
2021,08,13,01,21,27.60
2021,08,13,01,22,27.60
2021,08,13,01,23,27.50
2021,08,13,01,24,27.50
2021,08,13,01,25,27.40
2021,08,13,01,26,27.40
2021,08,13,01,27,27.30
2021,08,13,01,28,27.30
2021,08,13,01,29,27.30
2021,08,13,01,30,27.20
2021,08,13,01,31,27.20
2021,08,13,01,32,27.10
2021,08,13,01,33,27.10
2021,08,13,01,34,27.00
2021,08,13,01,35,27.00
2021,08,13,01,36,26.90
2021,08,13,01,37,26.80
2021,08,13,01,38,26.70
2021,08,13,01,39,26.60
2021,08,13,01,40,26.40
2021,08,13,01,41,26.30
2021,08,13,01,42,26.30
2021,08,13,01,43,26.20
2021,08,13,01,44,26.20
2021,08,13,01,45,26.10
2021,08,13,01,46,26.10
2021,08,13,01,47,26.10
2021,08,13,01,48,26.10
2021,08,13,01,49,26.10
2021,08,13,01,50,26.10
2021,08,13,01,51,26.10
2021,08,13,01,52,26.10
2021,08,13,01,53,26.10
2021,08,13,01,54,26.10
2021,08,13,01,55,26.20
2021,08,13,01,56,26.20
2021,08,13,01,57,26.20
2021,08,13,01,58,26.20
2021,08,13,01,59,26.20
2021,08,13,02,00,26.20
2021,08,13,02,01,26.20
2021,08,13,02,02,26.20
2021,08,13,02,03,26.10
2021,08,13,02,04,26.10
2021,08,13,02,05,26.10
2021,08,13,02,06,26.00
2021,08,13,02,07,26.00
2021,08,13,02,08,25.90
2021,08,13,02,09,25.90
2021,08,13,02,10,25.90
2021,08,13,02,11,25.90
2021,08,13,02,12,25.90
2021,08,13,02,13,25.90
2021,08,13,02,14,25.90
2021,08,13,02,15,25.90
2021,08,13,02,16,25.90
2021,08,13,02,17,25.90
2021,08,13,02,18,25.90
2021,08,13,02,19,25.90
2021,08,13,02,20,26.00
2021,08,13,02,21,26.00
2021,08,13,02,22,26.10
2021,08,13,02,23,26.10
2021,08,13,02,24,26.10
2021,08,13,02,25,26.20
2021,08,13,02,26,26.20
2021,08,13,02,27,26.20
2021,08,13,02,28,26.20
2021,08,13,02,29,26.20
2021,08,13,02,30,26.20
2021,08,13,02,31,26.20
2021,08,13,02,32,26.20
2021,08,13,02,33,26.10
2021,08,13,02,34,26.10
2021,08,13,02,35,26.10
2021,08,13,02,36,26.00
2021,08,13,02,37,25.90
2021,08,13,02,38,25.90
2021,08,13,02,39,25.90
2021,08,13,02,40,25.90
2021,08,13,02,41,25.90
2021,08,13,02,42,25.90
2021,08,13,02,43,25.90
2021,08,13,02,44,25.90
2021,08,13,02,45,25.90
2021,08,13,02,46,26.00
2021,08,13,02,47,26.10
2021,08,13,02,48,26.20
2021,08,13,02,49,26.20
2021,08,13,02,50,26.20
2021,08,13,02,51,26.20
2021,08,13,02,52,26.20
2021,08,13,02,53,26.20
2021,08,13,02,54,26.10
2021,08,13,02,55,26.00
2021,08,13,02,56,25.90
2021,08,13,02,57,25.90
2021,08,13,02,58,25.80
2021,08,13,02,59,25.80
2021,08,13,03,00,25.70
2021,08,13,03,01,25.70
2021,08,13,03,02,25.60
2021,08,13,03,03,25.60
2021,08,13,03,04,25.60
2021,08,13,03,05,25.60
2021,08,13,03,06,25.60
2021,08,13,03,07,25.60
2021,08,13,03,08,25.60
2021,08,13,03,09,25.70
2021,08,13,03,10,25.60
2021,08,13,03,11,25.70
2021,08,13,03,12,25.70
2021,08,13,03,13,25.70
2021,08,13,03,14,25.70
2021,08,13,03,15,25.70
2021,08,13,03,16,25.60
2021,08,13,03,17,25.60
2021,08,13,03,18,25.60
2021,08,13,03,19,25.60
2021,08,13,03,20,25.60
2021,08,13,03,21,25.60
2021,08,13,03,22,25.60
2021,08,13,03,23,25.60
2021,08,13,03,24,25.60
2021,08,13,03,25,25.70
2021,08,13,03,26,25.70
2021,08,13,03,27,25.80
2021,08,13,03,28,25.80
2021,08,13,03,29,25.80
2021,08,13,03,30,25.80
2021,08,13,03,31,25.80
2021,08,13,03,32,25.70
2021,08,13,03,33,25.70
2021,08,13,03,34,25.70
2021,08,13,03,35,25.60
2021,08,13,03,36,25.60
2021,08,13,03,37,25.50
2021,08,13,03,38,25.50
2021,08,13,03,39,25.50
2021,08,13,03,40,25.50
2021,08,13,03,41,25.50
2021,08,13,03,42,25.50
2021,08,13,03,43,25.50
2021,08,13,03,44,25.50
2021,08,13,03,45,25.50
2021,08,13,03,46,25.50
2021,08,13,03,47,25.50
2021,08,13,03,48,25.60
2021,08,13,03,49,25.60
2021,08,13,03,50,25.60
2021,08,13,03,51,25.60
2021,08,13,03,52,25.70
2021,08,13,03,53,25.70
2021,08,13,03,54,25.60
2021,08,13,03,55,25.60
2021,08,13,03,56,25.60
2021,08,13,03,57,25.60
2021,08,13,03,58,25.50
2021,08,13,03,59,25.50
2021,08,13,04,00,25.50
2021,08,13,04,01,25.40
2021,08,13,04,02,25.50
2021,08,13,04,03,25.50
2021,08,13,04,04,25.60
2021,08,13,04,05,25.60
2021,08,13,04,06,25.60
2021,08,13,04,07,25.60
2021,08,13,04,08,25.60
2021,08,13,04,09,25.60
2021,08,13,04,10,25.60
2021,08,13,04,11,25.60
2021,08,13,04,12,25.60
2021,08,13,04,13,25.60
2021,08,13,04,14,25.60
2021,08,13,04,15,25.60
2021,08,13,04,16,25.50
2021,08,13,04,17,25.50
2021,08,13,04,18,25.40
2021,08,13,04,19,25.30
2021,08,13,04,20,25.30
2021,08,13,04,21,25.30
2021,08,13,04,22,25.20
2021,08,13,04,23,25.20
2021,08,13,04,24,25.20
2021,08,13,04,25,25.20
2021,08,13,04,26,25.20
2021,08,13,04,27,25.20
2021,08,13,04,28,25.20
2021,08,13,04,29,25.20
2021,08,13,04,30,25.30
2021,08,13,04,31,25.30
2021,08,13,04,32,25.40
2021,08,13,04,33,25.50
2021,08,13,04,34,25.50
2021,08,13,04,35,25.60
2021,08,13,04,36,25.60
2021,08,13,04,37,25.60
2021,08,13,04,38,25.60
2021,08,13,04,39,25.60
2021,08,13,04,40,25.60
2021,08,13,04,41,25.60
2021,08,13,04,42,25.60
2021,08,13,04,43,25.60
2021,08,13,04,44,25.50
2021,08,13,04,45,25.50
2021,08,13,04,46,25.40
2021,08,13,04,47,25.40
2021,08,13,04,48,25.30
2021,08,13,04,49,25.30
2021,08,13,04,50,25.20
2021,08,13,04,51,25.30
2021,08,13,04,52,25.30
2021,08,13,04,53,25.30
2021,08,13,04,54,25.30
2021,08,13,04,55,25.30
2021,08,13,04,56,25.40
2021,08,13,04,57,25.40
2021,08,13,04,58,25.40
2021,08,13,04,59,25.40
2021,08,13,05,00,25.40
2021,08,13,05,01,25.40
2021,08,13,05,02,25.40
2021,08,13,05,03,25.40
2021,08,13,05,04,25.40
2021,08,13,05,05,25.40
2021,08,13,05,06,25.40
2021,08,13,05,07,25.30
2021,08,13,05,08,25.30
2021,08,13,05,09,25.30
2021,08,13,05,10,25.30
2021,08,13,05,11,25.30
2021,08,13,05,12,25.30
2021,08,13,05,13,25.30
2021,08,13,05,14,25.20
2021,08,13,05,15,25.20
2021,08,13,05,16,25.20
2021,08,13,05,17,25.20
2021,08,13,05,18,25.10
2021,08,13,05,19,25.10
2021,08,13,05,20,25.00
2021,08,13,05,21,25.00
2021,08,13,05,22,24.90
2021,08,13,05,23,24.90
2021,08,13,05,24,24.80
2021,08,13,05,25,24.80
2021,08,13,05,26,24.80
2021,08,13,05,27,24.80
2021,08,13,05,28,24.80
2021,08,13,05,29,24.70
2021,08,13,05,30,24.70
2021,08,13,05,31,24.60
2021,08,13,05,32,24.50
2021,08,13,05,33,24.40
2021,08,13,05,34,24.40
2021,08,13,05,35,24.30
2021,08,13,05,36,24.20
2021,08,13,05,37,24.20
2021,08,13,05,38,24.20
2021,08,13,05,39,24.20
2021,08,13,05,40,24.20
2021,08,13,05,41,24.20
2021,08,13,05,42,24.20
2021,08,13,05,43,24.20
2021,08,13,05,44,24.20
2021,08,13,05,45,24.20
2021,08,13,05,46,24.30
2021,08,13,05,47,24.30
2021,08,13,05,48,24.40
2021,08,13,05,49,24.50
2021,08,13,05,50,24.60
2021,08,13,05,51,24.60
2021,08,13,05,52,24.70
2021,08,13,05,53,24.80
2021,08,13,05,54,24.80
2021,08,13,05,55,24.90
2021,08,13,05,56,24.90
2021,08,13,05,57,24.90
2021,08,13,05,58,25.00
2021,08,13,05,59,25.00
2021,08,13,06,00,25.10
2021,08,13,06,01,25.10
2021,08,13,06,02,25.10
2021,08,13,06,03,25.10
2021,08,13,06,04,25.10
2021,08,13,06,05,25.10
2021,08,13,06,06,25.10
2021,08,13,06,07,25.10
2021,08,13,06,08,25.10
2021,08,13,06,09,25.10
2021,08,13,06,10,25.10
2021,08,13,06,11,25.10
2021,08,13,06,12,25.10
2021,08,13,06,13,25.10
2021,08,13,06,14,25.10
2021,08,13,06,15,25.10
2021,08,13,06,16,25.10
2021,08,13,06,17,25.10
2021,08,13,06,18,25.10
2021,08,13,06,19,25.10
2021,08,13,06,20,25.20
2021,08,13,06,21,25.20
2021,08,13,06,22,25.20
2021,08,13,06,23,25.20
2021,08,13,06,24,25.20
2021,08,13,06,25,25.20
2021,08,13,06,26,25.20
2021,08,13,06,27,25.10
2021,08,13,06,28,25.10
2021,08,13,06,29,25.10
2021,08,13,06,30,25.00
2021,08,13,06,31,25.00
2021,08,13,06,32,24.90
2021,08,13,06,33,24.90
2021,08,13,06,34,24.80
2021,08,13,06,35,24.80
2021,08,13,06,36,24.70
2021,08,13,06,37,24.70
2021,08,13,06,38,24.70
2021,08,13,06,39,24.60
2021,08,13,06,40,24.60
2021,08,13,06,41,24.60
2021,08,13,06,42,24.60
2021,08,13,06,43,24.60
2021,08,13,06,44,24.60
2021,08,13,06,45,24.60
2021,08,13,06,46,24.60
2021,08,13,06,47,24.60
2021,08,13,06,48,24.60
2021,08,13,06,49,24.50
2021,08,13,06,50,24.50
2021,08,13,06,51,24.50
2021,08,13,06,52,24.50
2021,08,13,06,53,24.40
2021,08,13,06,54,24.40
2021,08,13,06,55,24.40
2021,08,13,06,56,24.40
2021,08,13,06,57,24.30
2021,08,13,06,58,24.30
2021,08,13,06,59,24.30
2021,08,13,07,00,24.30
2021,08,13,07,01,24.30
2021,08,13,07,02,24.30
2021,08,13,07,03,24.30
2021,08,13,07,04,24.30
2021,08,13,07,05,24.40
2021,08,13,07,06,24.40
2021,08,13,07,07,24.40
2021,08,13,07,08,24.40
2021,08,13,07,09,24.40
2021,08,13,07,10,24.40
2021,08,13,07,11,24.40
2021,08,13,07,12,24.40
2021,08,13,07,13,24.40
2021,08,13,07,14,24.40
2021,08,13,07,15,24.40
2021,08,13,07,16,24.50
2021,08,13,07,17,24.50
2021,08,13,07,18,24.60
2021,08,13,07,19,24.60
2021,08,13,07,20,24.60
2021,08,13,07,21,24.60
2021,08,13,07,22,24.60
2021,08,13,07,23,24.60
2021,08,13,07,24,24.70
2021,08,13,07,25,24.70
2021,08,13,07,26,24.70
2021,08,13,07,27,24.70
2021,08,13,07,28,24.80
2021,08,13,07,29,24.80
2021,08,13,07,30,24.90
2021,08,13,07,31,24.90
2021,08,13,07,32,24.90
2021,08,13,07,33,25.00
2021,08,13,07,34,25.00
2021,08,13,07,35,25.10
2021,08,13,07,36,25.10
2021,08,13,07,37,25.10
2021,08,13,07,38,25.20
2021,08,13,07,39,25.10
2021,08,13,07,40,25.00
2021,08,13,07,41,25.00
2021,08,13,07,42,24.90
2021,08,13,07,43,24.90
2021,08,13,07,44,24.80
2021,08,13,07,45,24.80
2021,08,13,07,46,24.70
2021,08,13,07,47,24.70
2021,08,13,07,48,24.70
2021,08,13,07,49,24.70
2021,08,13,07,50,24.70
2021,08,13,07,51,24.70
2021,08,13,07,52,24.70
2021,08,13,07,53,24.70
2021,08,13,07,54,24.70
2021,08,13,07,55,24.70
2021,08,13,07,56,24.80
2021,08,13,07,57,24.80
2021,08,13,07,58,24.80
2021,08,13,07,59,24.80
2021,08,13,08,00,24.80
2021,08,13,08,01,24.80
2021,08,13,08,02,24.80
2021,08,13,08,03,24.80
2021,08,13,08,04,24.80
2021,08,13,08,05,24.80
2021,08,13,08,06,24.80
2021,08,13,08,07,24.70
2021,08,13,08,08,24.70
2021,08,13,08,09,24.70
2021,08,13,08,10,24.70
2021,08,13,08,11,24.60
2021,08,13,08,12,24.60
2021,08,13,08,13,24.60
2021,08,13,08,14,24.60
2021,08,13,08,15,24.50
2021,08,13,08,16,24.50
2021,08,13,08,17,24.50
2021,08,13,08,18,24.50
2021,08,13,08,19,24.50
2021,08,13,08,20,24.60
2021,08,13,08,21,24.50
2021,08,13,08,22,24.60
2021,08,13,08,23,24.60
2021,08,13,08,24,24.60
2021,08,13,08,25,24.60
2021,08,13,08,26,24.70
2021,08,13,08,27,24.70
2021,08,13,08,28,24.80
2021,08,13,08,29,24.80
2021,08,13,08,30,24.90
2021,08,13,08,31,24.90
2021,08,13,08,32,24.90
2021,08,13,08,33,24.90
2021,08,13,08,34,24.90
2021,08,13,08,35,25.00
2021,08,13,08,36,25.00
2021,08,13,08,37,25.10
2021,08,13,08,38,25.10
2021,08,13,08,39,25.10
2021,08,13,08,40,25.20
2021,08,13,08,41,25.20
2021,08,13,08,42,25.30
2021,08,13,08,43,25.40
2021,08,13,08,44,25.40
2021,08,13,08,45,25.50
2021,08,13,08,46,25.60
2021,08,13,08,47,25.70
2021,08,13,08,48,25.70
2021,08,13,08,49,25.80
2021,08,13,08,50,25.80
2021,08,13,08,51,25.90
2021,08,13,08,52,25.90
2021,08,13,08,53,25.90
2021,08,13,08,54,25.90
2021,08,13,08,55,25.90
2021,08,13,08,56,25.80
2021,08,13,08,57,25.80
2021,08,13,08,58,25.70
2021,08,13,08,59,25.70
2021,08,13,09,00,25.60
2021,08,13,09,01,25.60
2021,08,13,09,02,25.60
2021,08,13,09,03,25.60
2021,08,13,09,04,25.60
2021,08,13,09,05,25.70
2021,08,13,09,06,25.70
2021,08,13,09,07,25.70
2021,08,13,09,08,25.70
2021,08,13,09,09,25.80
2021,08,13,09,10,25.80
2021,08,13,09,11,25.90
2021,08,13,09,12,25.90
2021,08,13,09,13,25.90
2021,08,13,09,14,25.90
2021,08,13,09,15,25.90
2021,08,13,09,16,25.90
2021,08,13,09,17,25.90
2021,08,13,09,18,26.00
2021,08,13,09,19,26.00
2021,08,13,09,20,26.10
2021,08,13,09,21,26.10
2021,08,13,09,22,26.10
2021,08,13,09,23,26.10
2021,08,13,09,24,26.10
2021,08,13,09,25,26.10
2021,08,13,09,26,26.00
2021,08,13,09,27,26.00
2021,08,13,09,28,26.00
2021,08,13,09,29,25.90
2021,08,13,09,30,26.00
2021,08,13,09,31,26.00
2021,08,13,09,32,26.00
2021,08,13,09,33,26.10
2021,08,13,09,34,26.10
2021,08,13,09,35,26.10
2021,08,13,09,36,26.10
2021,08,13,09,37,26.10
2021,08,13,09,38,26.10
2021,08,13,09,39,26.10
2021,08,13,09,40,26.10
2021,08,13,09,41,26.10
2021,08,13,09,42,26.10
2021,08,13,09,43,26.20
2021,08,13,09,44,26.20
2021,08,13,09,45,26.20
2021,08,13,09,46,26.20
2021,08,13,09,47,26.30
2021,08,13,09,48,26.40
2021,08,13,09,49,26.40
2021,08,13,09,50,26.50
2021,08,13,09,51,26.70
2021,08,13,09,52,26.70
2021,08,13,09,53,26.80
2021,08,13,09,54,26.90
2021,08,13,09,55,27.00
2021,08,13,09,56,27.00
2021,08,13,09,57,27.10
2021,08,13,09,58,27.20
2021,08,13,09,59,27.20
2021,08,13,10,00,27.20
2021,08,13,10,01,27.30
2021,08,13,10,02,27.30
2021,08,13,10,03,27.30
2021,08,13,10,04,27.30
2021,08,13,10,05,27.20
2021,08,13,10,06,27.10
2021,08,13,10,07,27.10
2021,08,13,10,08,27.10
2021,08,13,10,09,27.10
2021,08,13,10,10,27.10
2021,08,13,10,11,27.10
2021,08,13,10,12,27.10
2021,08,13,10,13,27.10
2021,08,13,10,14,27.10
2021,08,13,10,15,27.00
2021,08,13,10,16,27.00
2021,08,13,10,17,27.00
2021,08,13,10,18,27.00
2021,08,13,10,19,27.00
2021,08,13,10,20,26.90
2021,08,13,10,21,26.90
2021,08,13,10,22,26.90
2021,08,13,10,23,26.90
2021,08,13,10,24,26.90
2021,08,13,10,25,26.90
2021,08,13,10,26,26.90
2021,08,13,10,27,27.00
2021,08,13,10,28,27.00
2021,08,13,10,29,27.10
2021,08,13,10,30,27.30
2021,08,13,10,31,27.40
2021,08,13,10,32,27.50
2021,08,13,10,33,27.60
2021,08,13,10,34,27.70
2021,08,13,10,35,27.70
2021,08,13,10,36,27.70
2021,08,13,10,37,27.70
2021,08,13,10,38,27.70
2021,08,13,10,39,27.60
2021,08,13,10,40,27.60
2021,08,13,10,41,27.60
2021,08,13,10,42,27.60
2021,08,13,10,43,27.70
2021,08,13,10,44,27.70
2021,08,13,10,45,27.70
2021,08,13,10,46,27.70
2021,08,13,10,47,27.70
2021,08,13,10,48,27.60
2021,08,13,10,49,27.60
2021,08,13,10,50,27.60
2021,08,13,10,51,27.60
2021,08,13,10,52,27.70
2021,08,13,10,53,27.70
2021,08,13,10,54,27.80
2021,08,13,10,55,27.80
2021,08,13,10,56,27.80
2021,08,13,10,57,27.90
2021,08,13,10,58,28.00
2021,08,13,10,59,28.00
2021,08,13,11,00,28.10
2021,08,13,11,01,28.10
2021,08,13,11,02,28.10
2021,08,13,11,03,28.20
2021,08,13,11,04,28.20
2021,08,13,11,05,28.40
2021,08,13,11,06,28.50
2021,08,13,11,07,28.50
2021,08,13,11,08,28.60
2021,08,13,11,09,28.70
2021,08,13,11,10,28.70
2021,08,13,11,11,28.60
2021,08,13,11,12,28.60
2021,08,13,11,13,28.70
2021,08,13,11,14,28.70
2021,08,13,11,15,28.70
2021,08,13,11,16,28.80
2021,08,13,11,17,28.80
2021,08,13,11,18,28.80
2021,08,13,11,19,28.80
2021,08,13,11,20,28.80
2021,08,13,11,21,28.90
2021,08,13,11,22,28.90
2021,08,13,11,23,28.90
2021,08,13,11,24,29.00
2021,08,13,11,25,29.10
2021,08,13,11,26,29.10
2021,08,13,11,27,29.00
2021,08,13,11,28,28.90
2021,08,13,11,29,28.90
2021,08,13,11,30,28.90
2021,08,13,11,31,28.80
2021,08,13,11,32,28.80
2021,08,13,11,33,28.80
2021,08,13,11,34,29.00
2021,08,13,11,35,29.00
2021,08,13,11,36,29.00
2021,08,13,11,37,29.10
2021,08,13,11,38,29.20
2021,08,13,11,39,29.20
2021,08,13,11,40,29.30
2021,08,13,11,41,29.30
2021,08,13,11,42,29.20
2021,08,13,11,43,29.20
2021,08,13,11,44,29.20
2021,08,13,11,45,29.20
2021,08,13,11,46,29.30
2021,08,13,11,47,29.30
2021,08,13,11,48,29.40
2021,08,13,11,49,29.40
2021,08,13,11,50,29.40
2021,08,13,11,51,29.40
2021,08,13,11,52,29.40
2021,08,13,11,53,29.50
2021,08,13,11,54,29.60
2021,08,13,11,55,29.60
2021,08,13,11,56,29.60
2021,08,13,11,57,29.60
2021,08,13,11,58,29.70
2021,08,13,11,59,29.70
2021,08,13,12,00,29.70
2021,08,13,12,01,29.70
2021,08,13,12,02,29.80
2021,08,13,12,03,29.80
2021,08,13,12,04,29.80
2021,08,13,12,05,29.80
2021,08,13,12,06,29.80
2021,08,13,12,07,29.70
2021,08,13,12,08,29.60
2021,08,13,12,09,29.60
2021,08,13,12,10,29.60
2021,08,13,12,11,29.70
2021,08,13,12,12,29.80
2021,08,13,12,13,29.80
2021,08,13,12,14,29.70
2021,08,13,12,15,29.60
2021,08,13,12,16,29.50
2021,08,13,12,17,29.40
2021,08,13,12,18,29.30
2021,08,13,12,19,29.30
2021,08,13,12,20,29.30
2021,08,13,12,21,29.30
2021,08,13,12,22,29.30
2021,08,13,12,23,29.30
2021,08,13,12,24,29.30
2021,08,13,12,25,29.30
2021,08,13,12,26,29.30
2021,08,13,12,27,29.40
2021,08,13,12,28,29.40
2021,08,13,12,29,29.30
2021,08,13,12,30,29.30
2021,08,13,12,31,29.30
2021,08,13,12,32,29.30
2021,08,13,12,33,29.40
2021,08,13,12,34,29.40
2021,08,13,12,35,29.40
2021,08,13,12,36,29.30
2021,08,13,12,37,29.30
2021,08,13,12,38,29.20
2021,08,13,12,39,29.20
2021,08,13,12,40,29.20
2021,08,13,12,41,29.20
2021,08,13,12,42,29.20
2021,08,13,12,43,29.10
2021,08,13,12,44,29.10
2021,08,13,12,45,29.20
2021,08,13,12,46,29.20
2021,08,13,12,47,29.10
2021,08,13,12,48,29.10
2021,08,13,12,49,29.10
2021,08,13,12,50,29.20
2021,08,13,12,51,29.20
2021,08,13,12,52,29.30
2021,08,13,12,53,29.30
2021,08,13,12,54,29.30
2021,08,13,12,55,29.30
2021,08,13,12,56,29.40
2021,08,13,12,57,29.30
2021,08,13,12,58,29.30
2021,08,13,12,59,29.30
2021,08,13,13,00,29.30
2021,08,13,13,01,29.30
2021,08,13,13,02,29.30
2021,08,13,13,03,29.40
2021,08,13,13,04,29.60
2021,08,13,13,05,29.70
2021,08,13,13,06,29.70
2021,08,13,13,07,29.80
2021,08,13,13,08,29.70
2021,08,13,13,09,29.80
2021,08,13,13,10,29.80
2021,08,13,13,11,29.80
2021,08,13,13,12,29.80
2021,08,13,13,13,29.80
2021,08,13,13,14,29.70
2021,08,13,13,15,29.70
2021,08,13,13,16,29.80
2021,08,13,13,17,29.80
2021,08,13,13,18,29.80
2021,08,13,13,19,29.80
2021,08,13,13,20,29.80
2021,08,13,13,21,29.80
2021,08,13,13,22,29.80
2021,08,13,13,23,29.80
2021,08,13,13,24,29.80
2021,08,13,13,25,29.80
2021,08,13,13,26,29.80
2021,08,13,13,27,29.80
2021,08,13,13,28,29.80
2021,08,13,13,29,29.80
2021,08,13,13,30,29.80
2021,08,13,13,31,29.80
2021,08,13,13,32,29.90
2021,08,13,13,33,29.90
2021,08,13,13,34,30.00
2021,08,13,13,35,30.10
2021,08,13,13,36,30.10
2021,08,13,13,37,30.00
2021,08,13,13,38,30.00
2021,08,13,13,39,30.00
2021,08,13,13,40,30.20
2021,08,13,13,41,30.20
2021,08,13,13,42,30.40
2021,08,13,13,43,30.50
2021,08,13,13,44,30.50
2021,08,13,13,45,30.60
2021,08,13,13,46,30.60
2021,08,13,13,47,30.60
2021,08,13,13,48,30.60
2021,08,13,13,49,30.60
2021,08,13,13,50,30.40
2021,08,13,13,51,30.30
2021,08,13,13,52,30.20
2021,08,13,13,53,30.20
2021,08,13,13,54,30.10
2021,08,13,13,55,30.00
2021,08,13,13,56,29.90
2021,08,13,13,57,29.80
2021,08,13,13,58,29.80
2021,08,13,13,59,29.70
2021,08,13,14,00,29.70
2021,08,13,14,01,29.70
2021,08,13,14,02,29.70
2021,08,13,14,03,29.70
2021,08,13,14,04,29.70
2021,08,13,14,05,29.70
2021,08,13,14,06,29.80
2021,08,13,14,07,29.80
2021,08,13,14,08,29.90
2021,08,13,14,09,30.00
2021,08,13,14,10,30.00
2021,08,13,14,11,30.10
2021,08,13,14,12,30.10
2021,08,13,14,13,30.10
2021,08,13,14,14,30.20
2021,08,13,14,15,30.20
2021,08,13,14,16,30.30
2021,08,13,14,17,30.30
2021,08,13,14,18,30.30
2021,08,13,14,19,30.40
2021,08,13,14,20,30.40
2021,08,13,14,21,30.40
2021,08,13,14,22,30.40
2021,08,13,14,23,30.40
2021,08,13,14,24,30.50
2021,08,13,14,25,30.50
2021,08,13,14,26,30.60
2021,08,13,14,27,30.60
2021,08,13,14,28,30.60
2021,08,13,14,29,30.50
2021,08,13,14,30,30.40
2021,08,13,14,31,30.40
2021,08,13,14,32,30.40
2021,08,13,14,33,30.40
2021,08,13,14,34,30.50
2021,08,13,14,35,30.60
2021,08,13,14,36,30.60
2021,08,13,14,37,30.60
2021,08,13,14,38,30.60
2021,08,13,14,39,30.60
2021,08,13,14,40,30.70
2021,08,13,14,41,30.70
2021,08,13,14,42,30.80
2021,08,13,14,43,30.80
2021,08,13,14,44,30.80
2021,08,13,14,45,30.90
2021,08,13,14,46,30.90
2021,08,13,14,47,30.90
2021,08,13,14,48,30.90
2021,08,13,14,49,31.00
2021,08,13,14,50,31.10
2021,08,13,14,51,31.20
2021,08,13,14,52,31.30
2021,08,13,14,53,31.30
2021,08,13,14,54,31.30
2021,08,13,14,55,31.30
2021,08,13,14,56,31.30
2021,08,13,14,57,31.30
2021,08,13,14,58,31.30
2021,08,13,14,59,31.40
2021,08,13,15,00,31.40
2021,08,13,15,01,31.40
2021,08,13,15,02,31.40
2021,08,13,15,03,31.40
2021,08,13,15,04,31.30
2021,08,13,15,05,31.30
2021,08,13,15,06,31.40
2021,08,13,15,07,31.40
2021,08,13,15,08,31.50
2021,08,13,15,09,31.50
2021,08,13,15,10,31.40
2021,08,13,15,11,31.40
2021,08,13,15,12,31.40
2021,08,13,15,13,31.40
2021,08,13,15,14,31.50
2021,08,13,15,15,31.50
2021,08,13,15,16,31.50
2021,08,13,15,17,31.60
2021,08,13,15,18,31.60
2021,08,13,15,19,31.70
2021,08,13,15,20,31.80
2021,08,13,15,21,31.90
2021,08,13,15,22,32.00
2021,08,13,15,23,32.00
2021,08,13,15,24,32.10
2021,08,13,15,25,32.10
2021,08,13,15,26,32.10
2021,08,13,15,27,32.10
2021,08,13,15,28,32.10
2021,08,13,15,29,32.00
2021,08,13,15,30,31.90
2021,08,13,15,31,31.90
2021,08,13,15,32,31.80
2021,08,13,15,33,31.80
2021,08,13,15,34,31.80
2021,08,13,15,35,31.80
2021,08,13,15,36,31.80
2021,08,13,15,37,31.70
2021,08,13,15,38,31.60
2021,08,13,15,39,31.50
2021,08,13,15,40,31.40
2021,08,13,15,41,31.20
2021,08,13,15,42,31.10
2021,08,13,15,43,30.90
2021,08,13,15,44,30.80
2021,08,13,15,45,30.70
2021,08,13,15,46,30.60
2021,08,13,15,47,30.60
2021,08,13,15,48,30.60
2021,08,13,15,49,30.60
2021,08,13,15,50,30.60
2021,08,13,15,51,30.60
2021,08,13,15,52,30.70
2021,08,13,15,53,30.70
2021,08,13,15,54,30.70
2021,08,13,15,55,30.70
2021,08,13,15,56,30.70
2021,08,13,15,57,30.70
2021,08,13,15,58,30.70
2021,08,13,15,59,30.70
2021,08,13,16,00,30.70
2021,08,13,16,01,30.70
2021,08,13,16,02,30.70
2021,08,13,16,03,30.70
2021,08,13,16,04,30.70
2021,08,13,16,05,30.70
2021,08,13,16,06,30.60
2021,08,13,16,07,30.60
2021,08,13,16,08,30.60
2021,08,13,16,09,30.60
2021,08,13,16,10,30.60
2021,08,13,16,11,30.60
2021,08,13,16,12,30.60
2021,08,13,16,13,30.60
2021,08,13,16,14,30.60
2021,08,13,16,15,30.60
2021,08,13,16,16,30.50
2021,08,13,16,17,30.50
2021,08,13,16,18,30.40
2021,08,13,16,19,30.40
2021,08,13,16,20,30.40
2021,08,13,16,21,30.40
2021,08,13,16,22,30.50
2021,08,13,16,23,30.50
2021,08,13,16,24,30.60
2021,08,13,16,25,30.50
2021,08,13,16,26,30.50
2021,08,13,16,27,30.50
2021,08,13,16,28,30.40
2021,08,13,16,29,30.40
2021,08,13,16,30,30.40
2021,08,13,16,31,30.40
2021,08,13,16,32,30.30
2021,08,13,16,33,30.30
2021,08,13,16,34,30.30
2021,08,13,16,35,30.40
2021,08,13,16,36,30.40
2021,08,13,16,37,30.50
2021,08,13,16,38,30.50
2021,08,13,16,39,30.60
2021,08,13,16,40,30.60
2021,08,13,16,41,30.50
2021,08,13,16,42,30.50
2021,08,13,16,43,30.60
2021,08,13,16,44,30.50
2021,08,13,16,45,30.50
2021,08,13,16,46,30.50
2021,08,13,16,47,30.50
2021,08,13,16,48,30.50
2021,08,13,16,49,30.50
2021,08,13,16,50,30.50
2021,08,13,16,51,30.50
2021,08,13,16,52,30.40
2021,08,13,16,53,30.40
2021,08,13,16,54,30.40
2021,08,13,16,55,30.40
2021,08,13,16,56,30.40
2021,08,13,16,57,30.40
2021,08,13,16,58,30.40
2021,08,13,16,59,30.40
2021,08,13,17,00,30.30
2021,08,13,17,01,30.30
2021,08,13,17,02,30.30
2021,08,13,17,03,30.30
2021,08,13,17,04,30.30
2021,08,13,17,05,30.30
2021,08,13,17,06,30.30
2021,08,13,17,07,30.40
2021,08,13,17,08,30.40
2021,08,13,17,09,30.50
2021,08,13,17,10,30.60
2021,08,13,17,11,30.60
2021,08,13,17,12,30.70
2021,08,13,17,13,30.70
2021,08,13,17,14,30.70
2021,08,13,17,15,30.70
2021,08,13,17,16,30.70
2021,08,13,17,17,30.70
2021,08,13,17,18,30.80
2021,08,13,17,19,30.80